Weather in Malyshenka

Russia / Tyumen Oblast     56°36′55″N   68°35′09″E
temp.,
°C
wind,
m/s
gust,
m/s
humid.,
%
clouds,
%
prec.,
mm/h
press.,
hPa
HPBL,
m
9 march, tue
tue923:00−12ssw61394100 0.2 1010566
02:00−9ssw71491100 0.4 1009618
05:00−7sw71491100 0.5 1008641
08:00−6sw81490100 0.1 1008607
11:00−5ssw81294100 0.3 1008767
14:00−6ssw91390100 0.4 1007880
17:00−6sw81490100 0.6 1006879
20:00−5sw7159395 0.1 1008624
10 march, wed
wed1023:00−10w479470 0.2 1011119
02:00−13wsw229599 0.0 101220
05:00−13sse1194100 0.0 101221
08:00−12ese2393100 0.0 101051
11:00−8e4694100 0.0 1008299
14:00−6e5790100 0.0 1006494
17:00−7e5795100 0.3 1003484
20:00−8ene5995100 0.8 1002382
11 march, thu
thu1123:00−9e5995100 1.7 1001374
02:00−10ene5895100 0.6 1000320
05:00−11ene4795100 1.9 1000312
08:00−11ssw3595100 1.0 1001378
11:00−13sw6892100 1.3 1002467
14:00−12sw5690100 0.1 1003607
17:00−13sw4693100 0.4 1004427
20:00−16nnw6995100 0.6 1006383
12 march, fri
fri1223:00−21nw61096100 0.8 1008379
02:00−23wnw5996100 0.1 1010367
05:00−24wnw51095100 0.3 1012348
08:00−26wnw489497 0.0 1015255
11:00−23w369061 0.0 1016273
14:00−18wsw46850 0.0 1017482
17:00−16sw489022 0.0 1017383
20:00−19ssw479730 0.0 1018106
13 march, sat
sat1323:00−15sw4109555 0.0 1019185
02:00−16sw5119674 0.0 1020209
05:00−18sw599662 0.0 1021170
08:00−17sw5109518 0.0 1022241
11:00−12sw589247 0.0 1022381
14:00−9sw6990100 0.1 1023646
17:00−9wsw6990100 0.1 1023652
20:00−12sw499498 0.1 1023208